QPF
0.00 0.00 0.00 0.00 0.00 0.00 0.00 0.00 0.00 0.00 0.00 0.00 0.00 0.01 0.03 0.03 0.05 0.20 0.29 0.23 0.16 0.18 0.19 0.21 0.20 0.17 0.16 0.13 0.10 0.09 0.08 0.11 0.07 0.03 0.00 0.00 0.00 0.00 0.00 0.00 0.00 0.01 0.02
0.00 0.00 0.00 0.00 0.00 0.00 0.00 0.00 0.00 0.00 0.00 0.00 0.00 0.01 0.00 0.00 0.00 0.00 0.00 0.00 0.01 0.02 0.04 0.07 0.09 0.06 0.11 0.14 0.14 0.09 0.06 0.03 0.03 0.05 0.09 0.18 0.13 0.12 0.07 0.06 0.06 0.08 0.11
0.00 0.00 0.00 0.00 0.00 0.00 0.00 0.00 0.00 0.00 0.00 0.00 0.00 0.00 0.00 0.00 0.00 0.00 0.00 0.00 0.00 0.00 0.00 0.00 0.02 0.01 0.01 0.02 0.01 0.02 0.01 0.04 0.15 0.15 0.09 0.09 0.09 0.08 0.09 0.13 0.18 0.23 0.27
0.00 0.00 0.00 0.00 0.00 0.00 0.00 0.00 0.00 0.00 0.00 0.00 0.00 0.00 0.00 0.00 0.00 0.00 0.00 0.00 0.00 0.00 0.00 0.00 0.00 0.00 0.00 0.00 0.01 0.04 0.05 0.05 0.06 0.08 0.10 0.11 0.11 0.12 0.10 0.07 0.07 0.10 0.11
0.00 0.00 0.00 0.00 0.00 0.00 0.00 0.00 0.00 0.00 0.00 0.00 0.00 0.00 0.00 0.00 0.00 0.00 0.00 0.00 0.00 0.00 0.00 0.00 0.00 0.00 0.00 0.00 0.00 0.01 0.03 0.05 0.06 0.07 0.07 0.05 0.04 0.03 0.03 0.05 0.04 0.02 0.03
0.00 0.00 0.00 0.00 0.00 0.00 0.00 0.00 0.00 0.00 0.00 0.00 0.00 0.00 0.00 0.00 0.00 0.00 0.00 0.00 0.00 0.00 0.00 0.00 0.00 0.00 0.00 0.00 0.00 0.00 0.00 0.01 0.00 0.00 0.00 0.01 0.02 0.02 0.02 0.03 0.01 0.00 0.00
0.00 0.00 0.00 0.00 0.00 0.00 0.00 0.00 0.00 0.00 0.00 0.00 0.00 0.00 0.00 0.00 0.00 0.00 0.00 0.00 0.00 0.00 0.00 0.00 0.00 0.00 0.00 0.00 0.00 0.00 0.00 0.00 0.00 0.00 0.00 0.00 0.00 0.00 0.01 0.00 0.00 0.00 0.00
0.01 0.01 0.01 0.00 0.00 0.00 0.00 0.00 0.00 0.00 0.00 0.00 0.00 0.00 0.00 0.00 0.00 0.00 0.00 0.00 0.00 0.00 0.00 0.00 0.00 0.00 0.00 0.00 0.00 0.00 0.00 0.00 0.00 0.00 0.00 0.00 0.00 0.00 0.00 0.00 0.00 0.00 0.00
0.02 0.02 0.01 0.02 0.06 0.02 0.00 0.00 0.00 0.00 0.00 0.00 0.00 0.00 0.00 0.00 0.00 0.00 0.00 0.00 0.00 0.00 0.00 0.00 0.00 0.00 0.00 0.00 0.00 0.00 0.00 0.00 0.00 0.00 0.00 0.00 0.00 0.00 0.00 0.00 0.00 0.00 0.00
0.03 0.01 0.00 0.02 0.05 0.03 0.00 0.00 0.00 0.00 0.00 0.00 0.00 0.00 0.00 0.00 0.00 0.00 0.00 0.00 0.00 0.00 0.00 0.00 0.00 0.00 0.00 0.00 0.00 0.00 0.00 0.00 0.00 0.00 0.00 0.00 0.00 0.00 0.00 0.00 0.00 0.00 0.00
0.00 0.00 0.00 0.00 0.01 0.01 0.00 0.00 0.00 0.00 0.00 0.00 0.00 0.00 0.00 0.00 0.00 0.00 0.00 0.00 0.00 0.00 0.00 0.00 0.00 0.00 0.00 0.00 0.00 0.00 0.00 0.00 0.00 0.00 0.00 0.00 0.00 0.00 0.00 0.00 0.00 0.00 0.00
0.00 0.00 0.00 0.00 0.00 0.00 0.00 0.00 0.01 0.00 0.00 0.00 0.00 0.00 0.00 0.00 0.00 0.00 0.00 0.00 0.00 0.00 0.00 0.00 0.00 0.00 0.00 0.00 0.00 0.00 0.00 0.00 0.00 0.00 0.00 0.00 0.00 0.00 0.00 0.00 0.00 0.00 0.00
0.00 0.00 0.00 0.00 0.00 0.01 0.01 0.03 0.11 0.09 0.04 0.04 0.02 0.00 0.00 0.00 0.00 0.00 0.00 0.00 0.00 0.00 0.00 0.00 0.00 0.00 0.00 0.00 0.00 0.00 0.00 0.00 0.00 0.00 0.00 0.00 0.00 0.00 0.00 0.00 0.00 0.00 0.00
0.00 0.00 0.00 0.00 0.00 0.00 0.01 0.05 0.12 0.11 0.04 0.01 0.01 0.02 0.02 0.02 0.01 0.00 0.00 0.00 0.00 0.00 0.00 0.00 0.00 0.00 0.00 0.00 0.00 0.00 0.00 0.00 0.00 0.00 0.00 0.00 0.00 0.00 0.00 0.00 0.00 0.00 0.00
0.00 0.00 0.00 0.00 0.00 0.00 0.00 0.01 0.01 0.02 0.03 0.02 0.01 0.01 0.02 0.01 0.00 0.00 0.00 0.00 0.00 0.00 0.00 0.00 0.00 0.00 0.00 0.00 0.00 0.00 0.00 0.00 0.00 0.00 0.00 0.00 0.00 0.00 0.00 0.00 0.00 0.00 0.00
0.00 0.00 0.00 0.00 0.00 0.00 0.00 0.00 0.00 0.01 0.02 0.03 0.02 0.00 0.00 0.00 0.00 0.00 0.00 0.00 0.00 0.00 0.00 0.00 0.00 0.00 0.00 0.00 0.00 0.00 0.00 0.00 0.00 0.00 0.00 0.00 0.00 0.00 0.00 0.00 0.00 0.00 0.00
0.00 0.00 0.00 0.00 0.00 0.00 0.00 0.00 0.00 0.00 0.00 0.00 0.00 0.00 0.00 0.00 0.00 0.00 0.00 0.00 0.00 0.00 0.00 0.00 0.00 0.00 0.00 0.00 0.00 0.00 0.00 0.00 0.00 0.00 0.00 0.00 0.00 0.00 0.00 0.00 0.00 0.00 0.00
0.00 0.00 0.00 0.00 0.00 0.00 0.00 0.00 0.00 0.00 0.00 0.00 0.00 0.00 0.00 0.00 0.00 0.00 0.00 0.00 0.00 0.00 0.00 0.00 0.00 0.00 0.00 0.00 0.00 0.00 0.00 0.00 0.00 0.00 0.00 0.00 0.00 0.00 0.00 0.00 0.00 0.00 0.00
0.00 0.00 0.00 0.00 0.00 0.00 0.00 0.00 0.00 0.00 0.00 0.00 0.00 0.00 0.00 0.00 0.00 0.00 0.00 0.00 0.00 0.00 0.00 0.00 0.00 0.00 0.00 0.00 0.00 0.00 0.00 0.00 0.00 0.00 0.00 0.00 0.00 0.00 0.00 0.00 0.00 0.00 0.00
0.00 0.00 0.00 0.00 0.00 0.00 0.00 0.00 0.00 0.00 0.00 0.00 0.00 0.00 0.00 0.00 0.00 0.00 0.00 0.00 0.00 0.00 0.00 0.00 0.00 0.00 0.00 0.00 0.00 0.00 0.00 0.00 0.00 0.00 0.00 0.00 0.00 0.00 0.00 0.00 0.00 0.00 0.00
0.00 0.00 0.00 0.00 0.00 0.00 0.00 0.00 0.00 0.00 0.00 0.00 0.00 0.00 0.00 0.00 0.00 0.00 0.00 0.00 0.00 0.00 0.00 0.00 0.00 0.00 0.00 0.00 0.00 0.00 0.00 0.00 0.00 0.00 0.00 0.00 0.00 0.00 0.00 0.00 0.00 0.00 0.00
0.00 0.00 0.00 0.00 0.00 0.00 0.00 0.00 0.00 0.00 0.00 0.00 0.00 0.00 0.00 0.00 0.00 0.00 0.00 0.00 0.00 0.00 0.00 0.00 0.00 0.00 0.00 0.00 0.00 0.00 0.00 0.00 0.00 0.00 0.00 0.00 0.00 0.00 0.00 0.00 0.00 0.00 0.00
0.00 0.00 0.00 0.00 0.00 0.00 0.00 0.00 0.00 0.00 0.00 0.00 0.00 0.00 0.00 0.00 0.00 0.00 0.00 0.00 0.00 0.00 0.00 0.00 0.00 0.00 0.00 0.00 0.00 0.00 0.00 0.00 0.00 0.00 0.00 0.00 0.00 0.00 0.00 0.00 0.00 0.00 0.00
0.00 0.00 0.00 0.00 0.00 0.00 0.00 0.00 0.00 0.00 0.00 0.00 0.00 0.00 0.00 0.00 0.00 0.00 0.00 0.00 0.00 0.00 0.00 0.00 0.00 0.00 0.00 0.00 0.00 0.00 0.00 0.00 0.00 0.00 0.00 0.00 0.00 0.00 0.00 0.00 0.00 0.00 0.00
0.00 0.00 0.00 0.00 0.00 0.00 0.00 0.00 0.00 0.00 0.00 0.00 0.00 0.00 0.00 0.00 0.00 0.00 0.00 0.00 0.00 0.00 0.00 0.00 0.00 0.00 0.00 0.00 0.00 0.00 0.00 0.00 0.00 0.00 0.00 0.00 0.00 0.00 0.00 0.00 0.00 0.00 0.00
0.00 0.00 0.00 0.00 0.00 0.00 0.00 0.00 0.00 0.00 0.00 0.00 0.00 0.00 0.00 0.00 0.00 0.00 0.00 0.00 0.00 0.00 0.00 0.00 0.00 0.00 0.00 0.00 0.00 0.00 0.00 0.00 0.00 0.00 0.00 0.00 0.00 0.00 0.00 0.00 0.00 0.00 0.00
MSLP
1012.69 1013.13 1013.45 1013.58 1013.76 1014.26 1014.18 1013.99 1014.39 1014.84 1014.84 1014.57 1014.34 1013.90 1013.51 1013.19 1013.09 1012.89 1012.97 1012.80 1012.93 1013.10 1013.40 1013.53 1013.61 1013.77 1013.98 1014.17 1014.40 1014.62 1014.80 1015.21 1015.57 1016.10 1016.50 1016.91 1017.32 1017.53 1017.52 1017.65 1017.72 1017.58 1017.55
1012.66 1013.15 1013.55 1013.67 1013.96 1014.35 1014.23 1014.36 1014.67 1015.02 1014.95 1014.83 1014.70 1014.46 1014.26 1014.10 1014.05 1013.82 1013.71 1013.79 1013.87 1013.94 1014.18 1014.25 1014.35 1014.18 1014.35 1014.63 1014.79 1014.95 1015.29 1015.59 1015.94 1016.35 1016.74 1017.27 1017.84 1018.23 1018.17 1018.30 1018.37 1018.34 1018.34
1012.71 1013.07 1013.35 1013.46 1014.30 1014.79 1014.60 1014.87 1014.85 1014.90 1014.97 1015.00 1015.16 1015.05 1014.97 1014.74 1014.70 1014.69 1014.81 1015.01 1015.19 1015.24 1015.19 1015.31 1015.38 1015.42 1015.58 1015.73 1015.75 1015.80 1015.91 1016.14 1016.25 1016.53 1016.97 1017.41 1018.03 1018.51 1018.77 1018.95 1019.09 1019.10 1019.16
1012.35 1012.75 1013.10 1013.45 1014.11 1015.02 1015.07 1015.05 1015.03 1015.28 1015.30 1015.30 1015.47 1015.31 1015.49 1015.47 1015.45 1015.49 1015.57 1015.78 1016.03 1016.27 1016.38 1016.40 1016.51 1016.41 1016.37 1016.36 1016.56 1016.65 1016.63 1016.62 1016.66 1016.86 1017.15 1017.61 1018.15 1018.62 1018.69 1019.10 1019.64 1019.83 1019.92
1012.15 1012.50 1012.97 1013.33 1014.14 1015.02 1015.07 1015.47 1015.60 1015.65 1015.74 1015.70 1015.87 1015.80 1015.89 1015.95 1016.34 1016.18 1016.30 1016.47 1016.61 1016.71 1016.83 1016.91 1017.10 1017.25 1017.20 1017.09 1017.10 1017.14 1017.13 1017.14 1017.26 1017.57 1017.89 1018.34 1018.71 1018.81 1018.89 1019.32 1019.74 1020.09 1020.44
1012.10 1012.29 1012.75 1013.29 1014.02 1015.07 1015.11 1015.78 1015.97 1016.14 1016.23 1016.43 1016.41 1016.52 1016.61 1017.08 1017.36 1016.96 1016.68 1016.64 1016.69 1016.63 1016.68 1016.94 1017.39 1017.63 1017.96 1017.98 1017.83 1017.82 1017.56 1017.24 1017.40 1017.78 1018.36 1018.61 1018.91 1018.96 1019.12 1019.43 1019.81 1020.00 1020.54
1012.01 1012.11 1012.87 1013.37 1014.12 1014.95 1015.09 1015.84 1016.30 1016.65 1016.71 1016.76 1016.83 1017.00 1017.47 1017.89 1018.11 1017.81 1017.26 1016.87 1016.87 1016.89 1016.82 1016.81 1016.94 1017.62 1017.83 1018.19 1018.29 1018.13 1018.10 1018.02 1017.85 1017.92 1018.23 1018.43 1018.67 1018.96 1019.07 1019.41 1019.61 1019.83 1020.38
1012.26 1012.38 1013.06 1013.45 1014.12 1014.76 1015.11 1015.98 1016.61 1016.87 1017.12 1017.23 1017.18 1017.53 1018.01 1018.61 1018.64 1018.39 1018.03 1017.60 1017.56 1017.59 1017.72 1017.92 1018.14 1018.49 1018.89 1018.52 1018.66 1018.89 1019.10 1019.19 1018.96 1018.70 1019.03 1019.21 1019.26 1018.77 1018.76 1018.99 1019.40 1019.80 1020.36
1012.82 1012.99 1013.45 1013.53 1014.08 1014.72 1015.12 1015.97 1016.59 1017.05 1017.32 1017.42 1017.69 1017.89 1018.27 1018.88 1019.09 1018.99 1018.45 1018.03 1018.18 1018.42 1018.96 1019.35 1018.96 1019.24 1019.47 1019.19 1018.84 1019.11 1019.42 1019.67 1020.14 1020.14 1020.13 1020.02 1019.89 1019.72 1019.33 1018.72 1018.62 1018.76 1019.09
1013.69 1013.97 1013.99 1014.22 1014.49 1014.94 1015.36 1016.07 1016.63 1017.12 1017.34 1017.50 1018.05 1018.62 1018.84 1019.20 1019.58 1019.42 1019.03 1018.14 1018.49 1018.81 1019.23 1019.86 1020.45 1020.74 1020.32 1019.80 1019.33 1019.28 1019.51 1019.63 1019.53 1019.64 1019.85 1019.78 1019.46 1019.62 1019.33 1018.81 1018.36 1017.95 1018.65
1014.82 1014.95 1015.38 1014.79 1015.25 1015.46 1015.82 1016.21 1016.76 1017.24 1017.60 1018.02 1018.64 1019.29 1019.65 1020.17 1020.26 1020.10 1019.39 1018.63 1018.55 1018.54 1018.87 1019.90 1021.05 1021.44 1021.26 1020.81 1020.19 1020.10 1020.33 1020.34 1020.01 1019.65 1019.25 1019.00 1018.90 1019.25 1019.52 1019.71 1019.59 1018.75 1018.79
1016.09 1016.21 1016.46 1016.19 1016.28 1016.49 1016.73 1017.14 1017.33 1017.62 1018.13 1018.90 1019.27 1019.91 1020.72 1021.15 1021.12 1020.86 1020.54 1020.24 1019.95 1019.64 1019.84 1020.94 1021.85 1021.84 1021.71 1021.43 1021.17 1021.18 1021.12 1020.82 1019.37 1019.03 1019.08 1019.28 1019.34 1019.44 1020.07 1020.34 1020.40 1020.15 1020.17
1016.70 1017.30 1017.15 1017.27 1017.44 1017.77 1018.01 1018.41 1018.72 1018.74 1019.26 1019.86 1020.53 1020.97 1021.39 1021.53 1021.64 1021.44 1021.09 1021.04 1020.87 1021.03 1021.25 1021.99 1022.17 1022.20 1021.48 1021.62 1021.40 1021.24 1021.05 1020.03 1019.39 1019.33 1019.52 1019.77 1019.89 1020.28 1020.26 1020.19 1020.31 1020.43 1020.43
1017.46 1018.00 1017.88 1018.10 1018.50 1018.85 1019.07 1019.33 1019.65 1019.96 1020.48 1020.81 1021.30 1021.55 1021.77 1022.07 1021.86 1021.85 1021.84 1021.79 1021.62 1021.90 1022.06 1022.07 1022.04 1021.92 1021.70 1021.47 1021.30 1020.86 1020.78 1020.49 1020.05 1019.96 1020.02 1020.11 1019.99 1020.00 1020.12 1020.09 1019.90 1019.75 1019.59
1017.95 1018.31 1018.45 1018.92 1019.50 1019.96 1020.49 1020.56 1020.74 1021.10 1021.23 1021.47 1021.63 1021.75 1022.20 1022.12 1022.16 1022.62 1022.29 1021.87 1021.71 1021.66 1021.64 1021.50 1021.04 1020.72 1020.64 1020.69 1020.75 1020.66 1020.57 1020.60 1020.48 1020.49 1020.26 1020.26 1020.16 1020.11 1020.34 1020.35 1020.19 1019.87 1019.69
1017.82 1018.03 1018.41 1019.00 1019.58 1020.09 1020.54 1021.10 1021.81 1022.18 1022.12 1022.11 1022.04 1022.04 1022.29 1022.43 1022.64 1022.72 1022.61 1022.32 1022.04 1022.10 1021.53 1020.48 1020.29 1020.17 1020.12 1020.23 1020.25 1020.46 1020.65 1021.03 1020.93 1020.88 1020.73 1020.68 1020.60 1020.59 1020.49 1020.48 1020.36 1020.14 1019.99
1017.35 1017.76 1018.15 1018.22 1018.62 1019.10 1019.63 1020.14 1021.05 1022.44 1022.55 1022.71 1022.61 1022.70 1022.58 1023.24 1023.05 1023.01 1022.97 1022.64 1022.34 1022.75 1021.67 1020.28 1020.18 1020.22 1020.30 1020.33 1020.32 1020.35 1020.52 1021.21 1021.82 1021.33 1021.11 1021.14 1020.96 1020.98 1021.28 1020.78 1020.52 1020.32 1020.12
1017.23 1017.42 1017.03 1017.01 1017.13 1017.42 1017.81 1018.34 1019.08 1019.89 1020.90 1022.33 1023.10 1023.02 1023.43 1023.41 1023.32 1023.32 1023.45 1023.30 1022.30 1022.18 1021.05 1020.04 1020.19 1020.40 1020.50 1020.54 1020.59 1020.87 1021.05 1021.23 1021.39 1021.53 1021.45 1021.32 1021.17 1021.00 1020.83 1020.80 1020.59 1020.63 1020.31
1016.51 1016.47 1016.57 1016.77 1016.91 1017.16 1017.28 1017.61 1018.10 1018.71 1019.41 1020.65 1022.17 1023.17 1023.53 1023.54 1023.53 1023.56 1023.64 1022.88 1021.17 1020.00 1019.83 1019.95 1020.40 1020.54 1020.75 1020.81 1020.99 1021.45 1021.76 1021.43 1021.55 1021.58 1021.41 1021.37 1021.15 1021.06 1020.90 1020.96 1020.77 1021.14 1021.23
1017.01 1017.26 1017.12 1017.12 1017.06 1017.00 1017.12 1017.50 1018.10 1018.57 1018.92 1019.43 1019.87 1020.51 1022.07 1022.93 1022.56 1022.42 1022.33 1021.48 1020.22 1019.80 1019.45 1019.76 1019.93 1020.33 1020.74 1021.01 1021.17 1021.34 1021.47 1021.53 1021.57 1021.73 1021.49 1021.07 1021.14 1021.22 1020.99 1020.91 1020.80 1020.55 1020.39
1017.02 1017.34 1017.37 1016.58 1016.76 1017.01 1017.30 1017.58 1017.83 1017.98 1018.21 1018.57 1019.12 1020.23 1020.83 1020.72 1019.84 1019.61 1019.67 1019.71 1019.77 1019.67 1019.62 1019.72 1020.03 1019.90 1020.33 1020.88 1021.12 1021.29 1021.34 1021.01 1020.85 1021.01 1021.03 1020.86 1020.98 1020.95 1020.96 1020.91 1020.82 1020.57 1020.30
1016.85 1016.82 1016.46 1016.54 1017.12 1017.48 1017.72 1017.77 1017.82 1017.82 1017.94 1018.00 1018.36 1019.79 1020.42 1020.49 1019.68 1019.16 1019.22 1019.31 1019.34 1019.54 1019.79 1020.06 1020.31 1020.10 1020.25 1020.26 1020.42 1020.78 1021.11 1020.84 1020.47 1020.42 1020.65 1020.68 1020.61 1020.63 1020.74 1020.64 1020.51 1020.27 1020.08
1016.60 1016.63 1016.84 1016.88 1017.12 1018.08 1018.00 1017.64 1017.51 1017.63 1017.48 1017.42 1017.62 1018.10 1019.23 1019.50 1019.32 1019.09 1018.91 1018.82 1019.07 1019.24 1019.54 1020.04 1020.34 1020.03 1019.89 1019.97 1020.26 1020.38 1020.36 1020.19 1019.97 1019.93 1020.14 1020.21 1020.27 1020.34 1020.40 1020.34 1020.13 1019.92 1019.82
1016.54 1016.60 1016.54 1017.04 1017.27 1017.75 1017.63 1017.52 1017.46 1017.57 1017.71 1017.41 1016.89 1017.63 1017.93 1017.62 1017.80 1018.15 1018.68 1018.86 1018.86 1018.84 1019.11 1019.43 1019.63 1019.66 1019.62 1019.71 1019.69 1019.87 1019.93 1019.96 1020.00 1020.04 1020.28 1020.34 1020.28 1020.09 1020.11 1020.16 1020.06 1019.74 1019.50
1016.86 1017.19 1017.37 1017.55 1017.56 1017.58 1017.68 1017.44 1017.39 1017.33 1016.97 1017.17 1016.89 1017.56 1017.90 1017.50 1017.49 1017.53 1017.91 1018.15 1018.10 1018.24 1018.28 1018.34 1018.58 1018.79 1018.90 1019.13 1019.29 1019.08 1019.49 1019.81 1019.80 1020.20 1020.29 1020.41 1020.12 1020.03 1019.87 1019.66 1019.49 1019.43 1019.22
1017.27 1017.70 1018.15 1017.81 1017.67 1017.42 1017.43 1017.37 1017.13 1016.94 1017.06 1017.16 1017.21 1017.51 1017.66 1017.52 1017.51 1017.41 1017.63 1017.93 1018.09 1017.80 1017.88 1017.98 1017.79 1017.74 1017.89 1018.09 1018.24 1018.53 1019.12 1019.34 1019.58 1019.92 1019.83 1019.88 1019.80 1019.58 1019.46 1019.38 1019.28 1019.31 1018.92
Thickness
5755 5754 5751 5751 5749 5744 5743 5743 5735 5729 5727 5727 5727 5727 5727 5727 5725 5726 5722 5724 5723 5721 5720 5720 5720 5721 5718 5718 5718 5717 5715 5712 5704 5704 5703 5700 5696 5694 5694 5693 5693 5694 5693
5754 5751 5749 5749 5746 5742 5742 5738 5733 5727 5727 5726 5725 5724 5722 5721 5720 5719 5718 5716 5714 5713 5711 5712 5711 5715 5713 5712 5711 5710 5707 5705 5701 5696 5695 5691 5686 5681 5681 5681 5679 5679 5679
5751 5750 5749 5748 5741 5736 5736 5732 5732 5729 5726 5725 5722 5720 5717 5717 5716 5715 5712 5709 5705 5702 5702 5701 5700 5700 5698 5699 5699 5699 5698 5696 5695 5690 5687 5684 5678 5673 5670 5667 5665 5664 5664
5754 5751 5748 5746 5742 5733 5731 5730 5730 5726 5723 5722 5719 5719 5714 5712 5711 5709 5707 5703 5700 5696 5694 5692 5690 5690 5690 5690 5689 5688 5687 5685 5684 5681 5680 5675 5670 5666 5665 5660 5654 5651 5650
5753 5751 5747 5746 5740 5731 5729 5724 5724 5721 5719 5716 5713 5714 5712 5709 5704 5704 5702 5699 5695 5693 5692 5690 5687 5685 5684 5684 5682 5680 5680 5677 5674 5670 5666 5662 5658 5657 5656 5651 5646 5642 5638
5751 5751 5749 5745 5738 5728 5727 5721 5718 5715 5713 5709 5708 5706 5705 5700 5694 5697 5699 5698 5696 5695 5692 5689 5684 5681 5677 5675 5675 5673 5674 5674 5671 5665 5658 5653 5650 5648 5645 5641 5636 5635 5631
5752 5754 5747 5741 5733 5727 5726 5719 5713 5708 5706 5704 5703 5701 5695 5692 5687 5689 5693 5694 5691 5689 5689 5687 5684 5677 5674 5669 5664 5665 5663 5663 5663 5660 5653 5650 5645 5640 5637 5633 5632 5629 5623
5748 5748 5743 5739 5731 5726 5722 5713 5706 5703 5699 5697 5697 5694 5689 5682 5679 5680 5681 5684 5682 5680 5677 5674 5671 5666 5659 5662 5658 5653 5648 5645 5646 5645 5640 5637 5634 5635 5633 5630 5624 5619 5613
5741 5739 5735 5734 5728 5722 5717 5709 5703 5697 5694 5692 5690 5687 5683 5676 5671 5670 5674 5676 5670 5666 5659 5653 5658 5654 5647 5647 5650 5643 5637 5632 5627 5625 5623 5622 5620 5619 5620 5623 5621 5619 5614
5730 5728 5729 5726 5721 5717 5712 5705 5699 5693 5690 5688 5682 5675 5672 5669 5661 5661 5662 5669 5661 5656 5652 5644 5636 5633 5634 5637 5639 5636 5629 5625 5623 5619 5615 5613 5612 5609 5609 5611 5615 5615 5608
5718 5717 5713 5718 5713 5710 5704 5700 5694 5688 5683 5677 5671 5664 5661 5654 5653 5650 5653 5660 5657 5654 5649 5639 5629 5621 5621 5622 5624 5623 5616 5612 5610 5610 5610 5610 5609 5603 5599 5596 5596 5601 5599
5702 5701 5699 5700 5698 5696 5692 5687 5684 5679 5673 5665 5660 5653 5645 5640 5638 5638 5638 5637 5637 5637 5633 5623 5614 5611 5609 5607 5608 5603 5600 5599 5609 5607 5603 5599 5597 5596 5588 5584 5582 5583 5580
5692 5684 5685 5685 5683 5680 5676 5670 5666 5663 5656 5649 5640 5635 5633 5631 5629 5627 5628 5625 5623 5619 5615 5606 5602 5600 5602 5599 5595 5594 5593 5599 5600 5596 5592 5588 5586 5582 5580 5578 5576 5573 5569
5679 5673 5673 5672 5668 5665 5661 5658 5653 5648 5641 5636 5631 5626 5623 5619 5620 5619 5617 5613 5608 5604 5599 5597 5594 5594 5593 5592 5589 5589 5587 5585 5586 5584 5581 5579 5579 5576 5573 5573 5572 5570 5569
5668 5664 5661 5658 5652 5646 5641 5640 5638 5634 5632 5627 5622 5619 5614 5614 5613 5606 5605 5606 5603 5599 5596 5593 5594 5593 5590 5587 5582 5580 5578 5575 5573 5571 5572 5569 5569 5567 5563 5561 5559 5559 5556
5663 5661 5658 5651 5644 5638 5633 5627 5621 5618 5617 5614 5611 5610 5606 5602 5596 5593 5590 5589 5588 5584 5587 5590 5587 5585 5582 5578 5575 5570 5567 5561 5561 5559 5559 5557 5555 5553 5552 5549 5547 5546 5543
5662 5658 5652 5650 5646 5640 5634 5629 5622 5608 5605 5601 5599 5595 5593 5587 5583 5580 5576 5575 5573 5569 5574 5580 5575 5572 5568 5566 5564 5561 5558 5551 5544 5546 5547 5544 5543 5540 5535 5536 5536 5534 5531
5655 5651 5654 5651 5649 5644 5640 5634 5628 5620 5611 5597 5585 5583 5577 5573 5570 5567 5563 5561 5567 5562 5566 5570 5564 5559 5555 5553 5551 5547 5543 5541 5538 5534 5534 5533 5532 5531 5530 5526 5524 5519 5518
5652 5650 5647 5642 5639 5634 5631 5629 5623 5617 5610 5597 5583 5573 5566 5562 5559 5555 5551 5554 5562 5568 5564 5558 5551 5546 5542 5540 5537 5531 5527 5529 5525 5524 5524 5522 5523 5522 5519 5514 5512 5499 5496
5637 5631 5631 5629 5627 5626 5623 5617 5609 5603 5599 5594 5589 5582 5566 5556 5557 5554 5550 5552 5557 5555 5555 5548 5543 5537 5530 5525 5522 5520 5519 5516 5514 5512 5513 5516 5514 5510 5508 5504 5501 5500 5498
5626 5621 5618 5624 5620 5616 5611 5606 5601 5597 5592 5587 5580 5568 5560 5560 5565 5564 5558 5554 5548 5544 5541 5536 5530 5529 5523 5516 5513 5509 5507 5509 5511 5508 5506 5508 5505 5502 5497 5494 5491 5490 5489
5618 5616 5617 5615 5608 5603 5600 5595 5590 5587 5583 5580 5576 5560 5551 5549 5553 5553 5548 5544 5539 5533 5527 5522 5516 5515 5512 5510 5508 5505 5502 5502 5504 5504 5500 5498 5497 5493 5489 5486 5484 5483 5481
5612 5608 5604 5602 5598 5586 5587 5586 5583 5578 5577 5576 5571 5566 5553 5546 5544 5541 5539 5536 5530 5525 5519 5512 5506 5507 5508 5506 5502 5500 5499 5499 5499 5497 5494 5491 5488 5484 5480 5478 5477 5476 5475
5603 5600 5598 5591 5587 5581 5580 5578 5575 5569 5566 5566 5567 5558 5553 5552 5547 5540 5531 5526 5523 5520 5516 5511 5507 5504 5503 5500 5498 5494 5492 5489 5486 5484 5480 5477 5475 5474 5471 5468 5467 5467 5468
5594 5587 5582 5577 5576 5573 5569 5569 5567 5565 5565 5560 5560 5550 5544 5544 5541 5538 5531 5526 5523 5519 5515 5512 5508 5503 5500 5494 5489 5489 5487 5481 5477 5473 5467 5464 5464 5462 5461 5461 5461 5459 5460
5582 5575 5568 5568 5567 5567 5564 5562 5561 5560 5555 5551 5548 5543 5538 5536 5533 5530 5525 5519 5513 5513 5508 5503 5502 5500 5496 5491 5488 5483 5476 5471 5466 5461 5458 5455 5454 5453 5453 5452 5451 5449 5451